Moses Lake, WA
on Wednesday, December 19, 2012

Wednesday
Previous Day Next Day
Daily Summary
 ActualAverageRecord
Temperature
Mean Temperature °F 28°F  
Max Temperature 37°F 34°F 46°F (2007)
Min Temperature 20°F 22°F -7°F (1984)
Degree Days
Heating Degree Days 36 37  
Month to date heating degree days 542 677  
Since 1 July heating degree days 1810 2138  
Cooling Degree Days 0 0  
Month to date cooling degree days 0 0  
Year to date cooling degree days 719 615  
Moisture
Dew Point 25°F   
Average Humidity 81    
Maximum Humidity 92    
Minimum Humidity 70    
Precipitation
Precipitation 0.05 in 0.06 in 0.28 in (1981)
Month to date precipitation 1.31 0.77  
Year to date precipitation 9.05 8.44  
Wind
Wind Speed 11 mph   
Max Wind Speed 22 mph   
Max Gust Speed 28 mph   
Visibility 6 miles   
Events Fog , Snow   

Key: T is trace of precipitation, MM is missing value
Source: NWS Daily Summary
Time(PST)TemperatureDew PointHumidity Pressure Visibility Wind DirectionWind SpeedGust SpeedPrecipitationEvents Conditions
12:52 AM 19.9°F 16.0°F 85% 30.02 in 10.0 miles North 4.6 mph - N/A   Clear
1:47 AM 19.4°F 15.8°F 86% 29.98 in 10.0 miles NNW 3.5 mph - N/A   Partly Cloudy
1:52 AM 19.9°F 16.0°F 85% 30.03 in 10.0 miles North 3.5 mph - N/A   Scattered Clouds
2:02 AM 19.4°F 15.8°F 86% 29.99 in 10.0 miles North 5.8 mph - N/A   Mostly Cloudy
2:37 AM 21.2°F 17.6°F 86% 29.98 in 10.0 miles North 4.6 mph - N/A   Scattered Clouds
2:52 AM 21.0°F 18.0°F 88% 30.03 in 10.0 miles Calm Calm - N/A   Clear
3:52 AM 21.0°F 18.0°F 88% 30.03 in 10.0 miles North 4.6 mph - N/A   Partly Cloudy
4:52 AM 23.0°F 19.0°F 85% 30.03 in 10.0 miles NNE 5.8 mph - N/A   Overcast
5:52 AM 24.1°F 21.0°F 88% 30.03 in 10.0 miles NNW 3.5 mph - N/A   Overcast
6:52 AM 26.1°F 23.0°F 88% 30.02 in 10.0 miles Calm Calm - N/A   Overcast
7:49 AM 28.4°F 24.8°F 86% 29.97 in 2.5 miles South 4.6 mph - 0.00 in Snow Light Snow
7:52 AM 28.0°F 24.1°F 85% 30.02 in 2.5 miles SSE 4.6 mph - 0.00 in Snow Light Snow
8:18 AM 28.4°F 24.8°F 86% 29.97 in 4.0 miles SSE 8.1 mph - 0.00 in Snow Light Snow
8:52 AM 30.0°F 25.0°F 82% 30.01 in 4.0 miles SSE 10.4 mph - 0.00 in   Haze
9:52 AM 30.9°F 26.1°F 82% 30.00 in 10.0 miles SSE 10.4 mph - N/A   Overcast
10:52 AM 33.1°F 26.1°F 75% 29.98 in 10.0 miles SE 10.4 mph - N/A   Overcast
11:19 AM 33.8°F 24.8°F 70% 29.93 in 2.0 miles SSE 15.0 mph 21.9 mph 0.00 in Snow Light Snow
11:27 AM 33.8°F 24.8°F 70% 29.93 in 2.0 miles SSE 19.6 mph 24.2 mph 0.00 in Snow Light Snow
11:52 AM 32.0°F 27.0°F 82% 29.97 in 2.0 miles SSE 17.3 mph 25.3 mph 0.00 in Snow Light Snow
11:59 AM 32.0°F 26.6°F 80% 29.92 in 1.0 miles SSE 17.3 mph - 0.00 in Snow Light Snow
12:11 PM 32.0°F 28.4°F 87% 29.92 in 0.8 miles SSE 16.1 mph - 0.00 in Snow Light Snow
12:21 PM 32.0°F 28.4°F 87% 29.92 in 0.5 miles SSE 15.0 mph - 0.01 in Fog , Snow Snow
12:36 PM 32.0°F 28.4°F 87% 29.92 in 0.8 miles SSE 17.3 mph - 0.01 in Snow Light Snow
12:47 PM 32.0°F 28.4°F 87% 29.92 in 1.0 miles SSE 16.1 mph - 0.02 in Snow Light Snow
12:52 PM 32.0°F 28.9°F 88% 29.96 in 0.8 miles SSE 17.3 mph - 0.02 in Snow Light Snow
1:20 PM 32.0°F 28.4°F 87% 29.91 in 1.0 miles SSE 16.1 mph - 0.01 in Snow Light Snow
1:52 PM 32.0°F 30.0°F 92% 29.96 in 1.8 miles SSE 10.4 mph - 0.01 in Snow Light Snow
2:52 PM 33.1°F 30.9°F 92% 29.93 in 1.8 miles SE 12.7 mph - 0.02 in Snow Light Snow
2:55 PM 33.8°F 30.2°F 87% 29.88 in 6.0 miles SE 15.0 mph - 0.00 in Snow Light Snow
3:52 PM 33.1°F 30.9°F 92% 29.91 in 10.0 miles SE 12.7 mph - 0.00 in   Overcast
4:52 PM 34.0°F 30.9°F 89% 29.89 in 10.0 miles SE 16.1 mph 24.2 mph N/A   Overcast
5:52 PM 34.0°F 30.0°F 85% 29.87 in 10.0 miles SE 17.3 mph - N/A   Overcast
6:52 PM 35.1°F 30.0°F 82% 29.85 in 10.0 miles SSE 17.3 mph 25.3 mph N/A   Overcast
7:52 PM 36.0°F 28.0°F 73% 29.85 in 10.0 miles SSE 18.4 mph - N/A   Overcast
8:52 PM 36.0°F 27.0°F 70% 29.83 in 10.0 miles SSE 16.1 mph - N/A   Overcast
9:52 PM 36.0°F 27.0°F 70% 29.83 in 10.0 miles SSE 12.7 mph - N/A   Overcast
10:52 PM 36.0°F 27.0°F 70% 29.81 in 10.0 miles SE 15.0 mph - N/A   Overcast
11:52 PM 37.0°F 26.1°F 65% 29.80 in 10.0 miles SE 17.3 mph 25.3 mph N/A   Overcast
Moon Phase
Dec. 19 Dec. 20 Dec. 28 Jan. 04 Jan. 11
Sunrise:07:40 AM (PST) Moon Rise:11:24 AM (PST)12/19
Sunset:04:09 PM (PST) Moon Set:No Moon Set/

Copyright © 2014 The Weather Underground, Inc.